Waterloo, IA

11:14 PM CST on March 05, 2015 (GMT -0600)
Waterloo Municipal | Change Station
CLOSE
Current Station
Airport
Location: Waterloo,
Elevation: 873 ft
Nearby Weather Stations

Elev 873 ft 42.55 °N, 92.40 °W | Updated 20 minutes ago

Partly Cloudy
Partly Cloudy
2 °F
Feels Like -11 °F
N
7
Wind Variable Wind from SSE

Today
High -- | Low -- °F
--% Chance of Precip.
Yesterday
High -- | Low -- °F
Precip. -- in
6:38 AM 6:03 PM
Full, 100% visible
Pressure 30.52 in
Visibility 10.0 miles
Clouds Clear
Windchill -11 °F
Dew Point -4 °F
Humidity 76%
Rainfall 0.00 in
Snow Depth Not available.
UV 0 out of 12
Pollen .50 out of 12
Air Quality Not available.
Flu Activity Not available.
METAR KALO 060454Z 15006KT 10SM CLR M17/M20 A3045 RMK AO2 SLP333 T11671200

More Conditions Fewer Conditions

Pressure 30.52 in
Visibility 10.0 miles
Clouds Clear
Windchill -11 °F
Dew Point -4 °F
Humidity 76%
Rainfall 0.00 in
Snow Depth Not available.
UV 0 out of 12
Pollen .50 out of 12
Air Quality Not available.
Flu Activity Not available.
METAR KALO 060454Z 15006KT 10SM CLR M17/M20 A3045 RMK AO2 SLP333 T11671200

More Conditions Fewer Conditions

10-Day Weather Forecast

Almanac

Astronomy

Mar. 05, 2015 Rise Set
Actual Time
Civil Twilight
Nautical Twilight
Astronomical Twilight
Moon
Length of Visible Light
Length of Day
Tomorrow will be .
, % of the Moon is Illuminated

Today's Extremes

State Highs State Lows

Community

WunderPhotos

Upload Photos

1,803,194 photos uploaded!

WunderBlogs® & News

Nearby

Air Quality

  Air Quality AQ Index Pollutant
Not available.

Snow Depth

Station Depth Elevation

Earthquake Activity

City Distance Mag. Time & Date
Minimum magnitude displayed is 2.5.

Coastal Water Temperatures

Place Temperature

Nearby Weather Stations